Terug naar catalogus

CZ-6A DEB

ActiefPO
NORAD 55869·DEBRIS·🇨🇳 China

Gelanceerd Nov 11, 2022 vanaf Taiyuan Satellite Launch Center

Loading…

Volgende Passages (komende 24 uur)

TLE

VersSource: Space-Track

Epoch: Sep 13, 2026, 17:36 UTC

1 55869U 22151ZR  26256.73365728  .00006648  00000-0  97496-3 0  9998
2 55869  98.6362 331.4433 0066358   0.3489 359.7752 14.74423989191293

Volg CZ-6A DEB in realtime met AllMySat

Download on the App Store